Location: Pea Ridge
(34.0640°N, 87.8670°W)
Time: 03:37:40
(UTC+00:00)

A-11 Canister half - Pass Details

Date: 19 December 2025
Orbit: 1526 x 1682 km, 47.3° (Epoch: 21 January)

Event Time Altitude Azimuth Distance (km) Brightness Sun altitude
Rises 15:13:17 0° 252° (WSW) 4,859 11.4 21.7°
Reaches altitude 10° 15:16:29 10° 256° (WSW) 3,891 11.0 22.1°
Maximum altitude 15:26:18 58° 334° (NNW) 1,909 9.5 23.3°
Drops below altitude 10° 15:36:19 10° 52° (NE) 3,946 11.2 24.5°
Sets 15:39:36 0° 57° (ENE) 4,931 11.7 24.8°
